Location: Pagani
(40.7500°N, 14.6167°E)
Time: 15:14:07
(UTC+00:00)

COSMOS 2428 - Pass Details

Date: 15 May 2026
Orbit: 844 x 855 km, 70.9° (Epoch: 10 June)

Event Time Altitude Azimuth Distance (km) Brightness Sun altitude
Rises 22:52:48 0° 330° (NNW) 3,418 6.7 -30.2°
Reaches altitude 10° 22:55:20 10° 325° (NW) 2,477 5.8 -30.2°
Enters shadow 22:59:32 41° 288° (WNW) 1,216 3.5 -30.2°
